Location: ????
(32.1228°N, 34.8377°E)
Time: 00:10:13
(UTC+00:00)

Cosmos 841 Rocket - Pass Details

Date: 21 September 2020
Orbit: 746 x 773 km, 74.0° (Epoch: 21 October)

Event Time Altitude Azimuth Distance (km) Brightness Sun altitude
Exits shadow 02:29:08 - 214° (SSW) 2,524 5.8 -13.3°
Reaches altitude 10° 02:29:47 10° 216° (SW) 2,279 5.5 -13.2°
Maximum altitude 02:34:45 47° 289° (WNW) 1,004 3.7 -12.1°
Drops below altitude 10° 02:39:48 10° 4° (N) 2,308 6.1 -11.1°
Sets 02:42:17 0° 10° (N) 3,241 7.0 -10.6°
